Regional Weather Roundup
Issued by NWS

Home | Current Version | Previous Version | Graphics & Text | Print | Product List | Glossary On
Versions: 1 2 3 4 5 6 7 8 9 10 11 12 13 14 15 16 17 18 19 20 21 22 23 24 25 26 27 28 29 30 31 32 33 34 35 36 37 38 39 40 41 42 43 44 45 46 47 48 49 50
000
ASUS43 KIND 182209
RWRIN

WEATHER ROUNDUP FOR INDIANA
NATIONAL WEATHER SERVICE INDIANAPOLIS IN
600 PM EDT FRI AUG 18 2017

NOTE: "FAIR" INDICATES FEW OR NO CLOUDS BELOW 12,000 FEET WITH NO
SIGNIFICANT WEATHER AND/OR OBSTRUCTIONS TO VISIBILITY.

* - STATION DOES NOT REPORT WEATHER SUCH AS PRECIPITATION OR FOG.

+ - STATION NOT QUALITY CONTROLLED BY THE NATIONAL WEATHER SERVICE.
    USE DATA WITH CAUTION...ESPECIALLY DEWPOINT AND RELATIVE
    HUMIDITY OBSERVATIONS.

INZ001>003-010>013-019-020-182300-
NORTHWEST INDIANA

CITY           SKY/WX    TMP DP  RH WIND       PRES   REMARKS
GARY /AIRPORT/ MOSUNNY   82  55  39 W12G23    29.85S
KNOX *+        SUNNY     79  63  57 W13       29.86F
LA PORTE +     SUNNY     80  62  53 W7G18     29.87S
MICHIGAN CITY+ SUNNY     79  61  53 W9        29.86S
MONTICELLO +   SUNNY     81  62  53 W9        29.87F
RENSSELAER +   SUNNY     79  59  50 SW10      29.88S
VALPARAISO     SUNNY     81  63  54 SW12      29.87R

$$

LMZ046-743>745-182300-
SOUTHERN LAKE MICHIGAN

STATION/POSITION TIME  TEMP    WIND        PRES    WAVE
                       AIR SEA DIR/SP/G            HT
                 (UTC) (F)     (DEG/KT/KT) (MB)    (FT)
BURNS HARBOR     2140   77     280/  2/  3 1011.2S
MICHIGAN CITY    2140   76      CALM  /  1   N/A
5NW MICH CITY    2200   74 75  130/  2/  4   N/A     2

$$

INZ004-005-014>016-021>024-182300-
NORTH CENTRAL INDIANA

CITY           SKY/WX    TMP DP  RH WIND       PRES   REMARKS
ELKHART        MOSUNNY   77  63  61 W6        29.86S
GOSHEN         MOSUNNY   79  61  53 W12       29.86S
LOGANSPORT +   SUNNY     79  63  57 W16       29.89S
PERU/GRISSOM   SUNNY     80  65  60 W13       29.88S
ROCHESTER +    SUNNY     81  63  54 W8        29.87S
SOUTH BEND     MOSUNNY   79  65  62 NW9       29.87R
WARSAW +       SUNNY     79  61  53 W13       29.87S

$$

INZ006>009-017-018-025>027-182300-
NORTHEAST INDIANA

CITY           SKY/WX    TMP DP  RH WIND       PRES   REMARKS
AUBURN +       SUNNY     79  61  53 W7        29.87S
FORT WAYNE     MOSUNNY   79  62  56 W14       29.87S
HUNTINGTON +   MOSUNNY   79  62  55 W12       29.87S
KENDALLVILLE + MOSUNNY   76  63  65 W10       29.87S

$$

INZ028-029-035-036-043>045-051>053-182300-
WEST CENTRAL INDIANA

CITY           SKY/WX    TMP DP  RH WIND       PRES   REMARKS
GREENCASTLE +  SUNNY     81  61  50 SW3       29.92R
LAFAYETTE      SUNNY     82  63  52 SW10      29.88S
TERRE HAUTE    SUNNY     85  60  42 W9        29.91F

$$

INZ030>032-037>040-046>048-054>057-064-065-182300-
CENTRAL INDIANA

CITY           SKY/WX    TMP DP  RH WIND       PRES   REMARKS
CP ATTERBURY + SUNNY     82  63  51 NW7       29.91S
COLUMBUS       MOSUNNY   82  55  39 W10       29.91F
FRANKFORT +    PTSUNNY   83  63  51 W10       29.92S
GREENWOOD *+   SUNNY     82  61  48 W8        29.91F
INDIANAPOLIS   MOSUNNY   84  61  45 W12       29.89F
-EAGLE CREEK   SUNNY     83  61  47 W10       29.89F
KOKOMO +       SUNNY     79  65  62 W10       29.90S
MARION +       SUNNY     79  64  61 W10       29.90S
MT COMFORT *+  SUNNY     82  63  51 W16       29.90F
SHELBYVILLE    SUNNY     83  61  47 W13       29.89F
ZIONSVILLE +   SUNNY     80  64  57 W9        29.91S

$$

INZ033-034-041-042-049-050-058-059-182300-
EAST CENTRAL INDIANA

CITY           SKY/WX    TMP DP  RH WIND       PRES   REMARKS
MUNCIE         SUNNY     81  62  52 W12       29.89S
RICHMOND +     SUNNY     77  63  61 W10       29.92S

$$

INZ060-061-067>069-081>083-085>088-182300-
SOUTHWEST INDIANA

CITY           SKY/WX    TMP DP  RH WIND       PRES   REMARKS
EVANSVILLE     SUNNY     86  64  47 W10       29.94S
HUNTINGBURG +  SUNNY     84  65  52 W9        29.94S
WASHINGTON +   SUNNY     85  59  40 MISG      29.92S

$$

INZ062-063-066-070>080-084-089>092-182300-
SOUTH CENTRAL AND SOUTHEAST INDIANA

CITY           SKY/WX    TMP DP  RH WIND       PRES   REMARKS
BEDFORD +      SUNNY     84  61  45 W6        29.92S
BLOOMINGTON    SUNNY     83  59  44 W8        29.92F
MADISON *+     SUNNY     84  59  42 W6        29.94S
NORTH VERNON + MOSUNNY   81  64  57 W8        29.92F
SEYMOUR +      SUNNY     86  63  45 W12       29.91S

$$





USA.gov is the U.S. government's official web portal to all federal, state and local government web resources and services.